sat.trackr.live / text

‹ back to catalog

STARLINK-37117

NORAD 68212 · 2026-053F

PAYLOAD ACTIVE UNKNOWN

§ Identity

Operator
Country
US
Launch date
2026-03-17
Launch site
AFWTR
Launch vehicle
Mass (kg)
RCS (m²)

Purposes: comms

External: N2YO · Heavens-Above · Gunter

§ Orbital elements

Epoch: 2026-05-25T03:34:27.166656Z

Period
93.91 min
Inclination
97.2867°
Eccentricity
0.0001733
Mean motion
15.33450039 rev/d
Perigee alt
464.3 km
Apogee alt
466.7 km
Semi-major
6,843.7 km
B*
3.7404e-4
RAAN
20.5678°
Arg perigee
91.3211°
Mean anomaly
268.8230°
Rev number
1,193

§ Raw data

STARLINK-371171 68212U 26053F   26145.14892554  .00012022  00000+0  37404-3 0  99982 68212  97.2867  20.5678 0001733  91.3211 268.8230 15.33450039 11935

JSON: /api/v1/satellites/68212 · /tle

For live sub-satellite position, see the globe view (requires WebGL).

§ Visibility from observer

Set your observer location to see the next 7 days of passes ≥ 10°. The values pass through the URL so the page stays shareable.

No JS? Fill the form by hand. The geolocation button needs JavaScript.